Regional Weather Roundup
Issued by NWS

Home | Current Version | Previous Version | Text Only | Print | Product List | Glossary Off
Versions: 1 2 3 4 5 6 7 8 9 10 11 12 13 14 15 16 17 18 19 20 21 22 23 24 25 26 27 28 29 30 31 32 33 34 35 36 37 38 39 40 41 42 43 44 45 46 47 48 49 50

000
ASUS43 KMKX 262159
RWRWI

WISCONSIN REGIONAL WEATHER ROUNDUP
NATIONAL WEATHER SERVICE MILWAUKEE/SULLIVAN WI
400 PM CST MON JAN 26 2015

NOTE: "FAIR" INDICATES FEW OR NO CLOUDS BELOW 12,000 FEET WITH NO
SIGNIFICANT WEATHER AND/OR OBSTRUCTIONS TO VISIBILITY.

WIZ001-002-006>008-014>016-023>028-262300-
NORTHWEST WISCONSIN

CITY           SKY/WX    TMP DP  RH WIND       PRES   REMARKS
SUPERIOR ARPT  CLOUDY    29  28  95 CALM      29.76R FOG
ASHLAND        LGT SNOW  25  21  85 S5        29.77R FOG     WCI  19
HAYWARD        LGT SNOW  25  22  88 CALM      29.75R FOG
SIREN          CLOUDY    33  32  96 CALM      29.75R FOG
CUMBERLAND     LGT SNOW  27  25  93 CALM      29.74R
RICE LAKE      LGT SNOW  26  24  93 CALM      29.76R
CHETEK         LGT SNOW  25  24  95 CALM      29.76R
LADYSMITH      CLOUDY    24  22  92 S3        29.76R
EAU CLAIRE     NOT AVBL
MENOMONIE      CLOUDY    30  27  89 CALM      29.77R
NEW RICHMOND   CLOUDY    37  32  81 W3        29.75R
OSCEOLA        CLOUDY    40  33  76 W6        29.78R
$$

WIZ003>005-009-010-017-018-262300-
NORTH CENTRAL WISCONSIN

CITY           SKY/WX    TMP DP  RH WIND       PRES   REMARKS
MANITOWISH WTR CLOUDY    19  16  86 S5        29.73R WCI  12
ARBOR VITAE    CLOUDY    22  18  84 S5        29.73R WCI  15
WOODRUFF       CLOUDY    22  18  84 S5        29.73R WCI  15
RHINELANDER    CLOUDY    19  15  84 S7        29.75R WCI  10
EAGLE RIVER    CLOUDY    21  15  80 S7        29.74R WCI  12
LAND O LAKES   CLOUDY    21  17  83 S6        29.74R WCI  14
PHILLIPS       MIX PCPN  21  19  91 S7        29.73R WCI  12
TOMAHAWK       CLOUDY    19  16  86 CALM      29.76R
MEDFORD        CLOUDY    20  19  93 SE5       29.73S FOG     WCI  14
MERRILL        CLOUDY    21  17  84 SE6       29.76S WCI  13
$$

WIZ029-030-035-036-043>047-262300-
CENTRAL WISCONSIN

CITY           SKY/WX    TMP DP  RH WIND       PRES   REMARKS
WAUSAU         CLOUDY    21  17  84 SE7       29.76R WCI  12
MOSINEE        LGT SNOW  21  19  93 SE6       29.77R WCI  14
MARSHFIELD     CLOUDY    22  19  89 S9        29.76R WCI  12
STEVENS POINT  CLOUDY    20  18  90 S7        29.79R WCI  11
WAUPACA        LGT SNOW  26  21  83 SE7       29.82R WCI  18
WAUTOMA        FRZ RAIN  23  21  93 S7        29.82R FOG     WCI  15
WISC RAPIDS    CLOUDY    22  19  89 SE7       29.80R WCI  13
CAMP DOUGLAS   NOT AVBL
$$

WIZ011>013-019>022-031-037>040-048>050-262300-
NORTHEAST WISCONSIN

CITY           SKY/WX    TMP DP  RH WIND       PRES   REMARKS
ANTIGO         CLOUDY    19  17  89 S8        29.78R WCI   9
SHAWANO        LGT SNOW  26  21  79 SE6       29.83S WCI  20
OCONTO         CLOUDY    25  22  88 CALM      29.86R
STURGEON BAY   CLOUDY    25  21  86 SE8       29.88R WCI  16
GREEN BAY      LGT SNOW  26  21  81 S7        29.85S WCI  18
MANITOWOC      NOT AVBL
APPLETON       LGT SNOW  25  19  80 SE8       29.83R WCI  16
CLINTONVILLE   LGT SNOW  25  21  86 SE9       29.82S WCI  15
OSHKOSH        LGT SNOW  25  20  81 SE8       29.83R WCI  16
$$

WIZ032>034-041-042-053>061-262300-
SOUTHWEST WISCONSIN

CITY           SKY/WX    TMP DP  RH WIND       PRES   REMARKS
LA CROSSE      CLOUDY    30  26  85 S7        29.78R WCI  23
SPARTA         CLOUDY    26  25  96 CALM      29.78S
VIROQUA        CLOUDY    26  26 100 S5        29.76R WCI  20
BOSCOBEL       CLOUDY    27  23  85 CALM      29.81R FOG
PRAIRIE DU CHI CLOUDY    29  25  85 E6        29.79R WCI  23
PLATTEVILLE    CLOUDY    25  24  95 SE9       29.79R WCI  16
$$

WIZ056-057-062-063-064-067-068-262300-
SOUTH CENTRAL WISCONSIN

CITY           SKY/WX    TMP DP  RH WIND       PRES   REMARKS
REEDSBURG      CLOUDY    23  22  95 S5        29.79R FOG     WCI  17
BARABOO/DELLS  CLOUDY    23  21  93 S7        29.79R FOG     WCI  14
LONE ROCK      NOT AVBL
MINERAL POINT  LGT RAIN  27  25  93 S5        29.78R WCI  21
MADISON        LGT SNOW  23  20  88 S9G20     29.82R VSB 1   WCI  13
MIDDLETON      CLOUDY    24  23  94 S9        29.81R WCI  15
WATERTOWN      FLURRIES  24  22  91 S5        29.83R WCI  18
MONROE         CLOUDY    23  23 100 SE8       29.80R FOG     WCI  14
JANESVILLE     CLOUDY    25  25 100 S9        29.84R FOG     WCI  15
$$

WIZ051-052-058>065-066-070>072-262300-
SOUTHEAST WISCONSIN

CITY           SKY/WX    TMP DP  RH WIND       PRES   REMARKS
MILWAUKEE      FLURRIES  26  20  77 SE10      29.86S WCI  16
WAUKESHA       LGT SNOW  23  19  86 SE7       29.84S WCI  15
MILWAUKEE/TIMM FLURRIES  27  19  74 SE7       29.86R WCI  19
RACINE         CLOUDY    26  19  74 SE7       29.88R WCI  18
BURLINGTON     FLURRIES  24  20  83 S7        29.85R WCI  16
KENOSHA        CLOUDY    26  21  81 SE8       29.86R WCI  18
FOND DU LAC    LGT SNOW  25  19  78 S9        29.83R WCI  15
SHEBOYGAN      CLOUDY    26  18  71 S10       29.85R WCI  16
WEST BEND      FLURRIES  27  19  74 SE8       29.83S WCI  18
JUNEAU         FLURRIES  24  21  87 SE9       29.83S WCI  14
$$

LSZ147-162-262300-
LAKE SUPERIOR

STATION/POSITION TIME  TEMP    WIND        PRES    WAVE
                       AIR SEA DIR/SP/G            HT/PER
                 (UTC) (F)     (DEG/KT/KT) (MB)    (FT/S)
DEVILS ISLAND    2100   25     190/  4/  5 1008.5R
PORT WING        2100   28     310/  2/  3 1007.5R
SAXON HARBOR     2100   26     200/  2/  9 1007.5R
$$

LMZ867-665-643>646-262300-
LAKE MICHIGAN

STATION/POSITION TIME  TEMP    WIND        PRES    WAVE
                       AIR SEA DIR/SP/G            HT/PER
                 (UTC) (F)     (DEG/KT/KT) (MB)    (FT/S)
NORTHPORT PIER   2119   25     150/ 11/ 19 1012.5R
KEWAUNEE LAKESHO 2100   27     180/ 14/ 16 1010.2R
SHEBOYGAN LAKESH 2100   26     190/ 13/ 16 1011.9F
PORT WASHINGTON  2100   27     160/ 10/ 13 1011.5
MILWAUKEE LAKESH 2100   26     150/ 10/ 12   N/A
KENOSHA   LAKESH 2100   26     160/  9/ 11 1011.2F
$$

TC  - TEMPERATURE IN CELSIUS
VSB - VISIBILITY IN STATUTE MILES
WCI - WIND CHILL INDEX
HX  - HEAT INDEX



USA.gov is the U.S. government's official web portal to all federal, state and local government web resources and services.